Total_Precipitation_Accumulation
0.07 0.06 0.05 0.03 0.00 0.01 0.01 0.03 0.08 0.08 0.04 0.04 0.02 0.00 0.00 0.00 0.00 0.00 0.00 0.00 0.00 0.00
0.05 0.06 0.04 0.05 0.02 0.01 0.01 0.02 0.04 0.07 0.06 0.04 0.05 0.04 0.02 0.00 0.00 0.00 0.00 0.00 0.00 0.00
0.04 0.05 0.05 0.05 0.06 0.02 0.00 0.00 0.01 0.02 0.04 0.06 0.05 0.05 0.04 0.02 0.01 0.00 0.00 0.00 0.00 0.00
0.04 0.06 0.06 0.04 0.07 0.08 0.03 0.01 0.01 0.01 0.01 0.02 0.05 0.06 0.06 0.03 0.01 0.01 0.01 0.00 0.00 0.00
0.05 0.06 0.09 0.06 0.05 0.07 0.08 0.04 0.02 0.00 0.00 0.01 0.02 0.04 0.07 0.03 0.03 0.01 0.00 0.00 0.00 0.00
0.07 0.07 0.10 0.13 0.09 0.06 0.06 0.07 0.06 0.02 0.00 0.00 0.01 0.02 0.01 0.01 0.01 0.01 0.01 0.00 0.00 0.00
0.07 0.08 0.10 0.11 0.11 0.06 0.06 0.06 0.08 0.07 0.02 0.00 0.00 0.00 0.00 0.00 0.00 0.00 0.00 0.02 0.01 0.00
0.04 0.07 0.10 0.12 0.12 0.08 0.05 0.07 0.05 0.09 0.10 0.02 0.01 0.00 0.00 0.00 0.00 0.00 0.00 0.00 0.00 0.01
0.04 0.04 0.08 0.11 0.12 0.11 0.09 0.06 0.06 0.05 0.07 0.03 0.02 0.01 0.01 0.00 0.00 0.00 0.00 0.00 0.00 0.00
0.08 0.04 0.06 0.07 0.14 0.15 0.12 0.12 0.05 0.04 0.04 0.03 0.02 0.03 0.02 0.01 0.01 0.00 0.00 0.00 0.00 0.00
0.18 0.08 0.04 0.06 0.08 0.20 0.18 0.07 0.08 0.04 0.03 0.03 0.03 0.02 0.02 0.02 0.01 0.00 0.00 0.00 0.00 0.00
0.27 0.24 0.11 0.05 0.07 0.11 0.18 0.24 0.07 0.04 0.03 0.02 0.03 0.04 0.02 0.01 0.00 0.00 0.00 0.00 0.00 0.00
0.32 0.32 0.33 0.23 0.15 0.13 0.12 0.18 0.24 0.09 0.03 0.07 0.02 0.04 0.02 0.01 0.00 0.00 0.00 0.00 0.00 0.02
0.27 0.30 0.38 0.40 0.35 0.30 0.24 0.18 0.16 0.17 0.10 0.04 0.05 0.04 0.06 0.06 0.01 0.00 0.00 0.00 0.00 0.01